weather.gov     
National Weather Service

Terminal Aerodrome Forecast
NWS Homepage
This page is being discontinued on March 12, 2014.
The same data is available at this site. Please update your bookmarks.
Thank you, and we apologize for the inconvenience.
Please send an email to SR-SRH.Webmaster@noaa.gov with any concerns.


Current Version
Previous Version:    01  02  03  04  05  06  07  08  09  10  11  12  13  14  15  16  17  18  19  20  21  22  23  24  25  26  27  28  29  30  
   31  
[Printable]
941
FTAK31 PAJN 011100
TAFAWG
TAF
PAWG 011131Z 0112/0212 VRB03KT P6SM -SHRA SCT008 BKN025 OVC040
     FM011900 30005KT P6SM -SHRA SCT030 OVC040
     FM020300 VRB04KT P6SM VCSH SCT030 OVC040
      AMD LTD TO CLD VIS AND WIND 0112/0115=


U.S. Dept. of Commerce
NOAA National Weather Service
1325 East West Highway
Silver Spring, MD 20910
E-mail: w-nws.webmaster@noaa.gov
Page last modified: May 16, 2007
NATIONAL WEATHER SERVICE: for Safety, for Work, for Fun - FOR LIFE